TimeCDT,TemperatureF,Dew PointF,Humidity,Sea Level PressureIn,VisibilityMPH,Wind Direction,Wind SpeedMPH,Gust SpeedMPH,PrecipitationIn,Events,Conditions,WindDirDegrees,DateUTC
12:53 AM,73.0,57.0,57,29.81,10.0,Calm,Calm,-,N/A,,Clear,0,2013-05-09 05:53:00
1:53 AM,72.0,57.0,59,29.80,10.0,SSE,4.6,-,N/A,,Clear,150,2013-05-09 06:53:00
2:53 AM,69.1,55.9,63,29.78,10.0,SSE,5.8,-,N/A,,Clear,160,2013-05-09 07:53:00
3:53 AM,68.0,55.9,65,29.77,10.0,South,6.9,-,N/A,,Clear,170,2013-05-09 08:53:00
4:53 AM,66.9,55.9,68,29.78,10.0,South,9.2,-,N/A,,Clear,180,2013-05-09 09:53:00
5:53 AM,64.9,55.9,73,29.78,10.0,SSW,9.2,-,N/A,,Clear,210,2013-05-09 10:53:00
6:53 AM,64.9,46.9,52,29.80,10.0,South,10.4,-,N/A,,Clear,180,2013-05-09 11:53:00
7:53 AM,66.0,39.9,38,29.82,10.0,South,8.1,-,N/A,,Clear,170,2013-05-09 12:53:00
8:53 AM,72.0,30.9,22,29.86,10.0,West,15.0,27.6,N/A,,Mostly Cloudy,270,2013-05-09 13:53:00
9:53 AM,78.1,32.0,19,29.86,10.0,WSW,18.4,27.6,N/A,,Mostly Cloudy,250,2013-05-09 14:53:00
10:53 AM,79.0,28.9,16,29.85,10.0,Calm,Calm,-,N/A,,Partly Cloudy,0,2013-05-09 15:53:00
11:53 AM,82.0,28.0,14,29.84,10.0,WSW,8.1,16.1,N/A,,Clear,250,2013-05-09 16:53:00
12:53 PM,84.0,26.1,12,29.83,10.0,NW,9.2,19.6,N/A,,Clear,310,2013-05-09 17:53:00
1:53 PM,87.1,24.1,10,29.80,10.0,West,15.0,21.9,N/A,,Clear,280,2013-05-09 18:53:00
2:53 PM,88.0,25.0,10,29.78,10.0,SSW,11.5,19.6,N/A,,Clear,210,2013-05-09 19:53:00
3:53 PM,84.9,24.1,11,29.75,10.0,Variable,6.9,-,N/A,,Clear,0,2013-05-09 20:53:00
4:53 PM,89.1,25.0,10,29.73,10.0,West,13.8,24.2,N/A,,Clear,260,2013-05-09 21:53:00
5:53 PM,89.1,21.9,9,29.72,10.0,WNW,13.8,21.9,N/A,,Clear,290,2013-05-09 22:53:00
6:53 PM,88.0,21.0,9,29.72,10.0,NW,9.2,-,N/A,,Clear,310,2013-05-09 23:53:00
7:53 PM,84.9,18.0,8,29.73,10.0,WNW,13.8,20.7,N/A,,Clear,290,2013-05-10 00:53:00
9:53 PM,78.1,21.0,12,29.77,10.0,West,5.8,-,N/A,,Clear,280,2013-05-10 02:53:00
10:53 PM,80.1,28.9,15,29.81,8.0,WNW,16.1,48.3,0.00,Rain,Light Rain,300,2013-05-10 03:53:00